Marrakech, Morocco

9:46 PM WET on December 16, 2017 (GMT +0000)
Marrakech

Weather History for GMMX - March, 2014

Change the Weather History Date:

Wednesday, March 5, 2014

  Actual Average Record
Temperature  
Mean Temperature 60 °F -  
Max Temperature 75 °F 73 °F 87 °F (2001)
Min Temperature 46 °F 50 °F 44 °F (2004)
Degree Days  
Heating Degree Days 4    
Growing Degree Days 10 (Base 50)    
Moisture  
Dew Point 46 °F    
Average Humidity 61    
Maximum Humidity 93    
Minimum Humidity 22    
Precipitation  
Precipitation 0.00 in 0.05 in - ()
Sea Level Pressure  
Sea Level Pressure 30.06 in    
Wind  
Wind Speed 6 mph ()    
Max Wind Speed 10 mph    
Max Gust Speed -    
Visibility 6.0 miles    
Events      
Averages and records for this station are not official NWS values.
T = Trace of Precipitation, MM = Missing Value Source: Averaged Metar Reports

Daily Weather History Graph

Daily Weather History Graph

Search for Another Location

Airport or City:

Trip Planner

Search our weather history database for the weather conditions in past years. The results will help you decide how hot, cold, wet, or windy it might be!

Date:

Astronomy

Mar. 05, 2014 Rise Set
Actual Time 6:54 AM WET 6:32 PM WET
Civil Twilight 6:30 AM WET 6:57 PM WET
Nautical Twilight 6:02 AM WET 7:25 PM WET
Astronomical Twilight 5:33 AM WET 7:53 PM WET
Moon 9:29 AM WET (3/5) 11:08 PM WET (3/5)
Length of Visible Light 12h 27m
Length of Day
11h 38m
Waxing Crescent, 21% of the Moon is Illuminated
Mar 5
Waxing Crescent
Mar 8
First Quarter
Mar 16
Full
Mar 24
Last Quarter
Mar 30
New

Hourly Weather History & Observations

Time (WET) Temp. Windchill Dew Point Humidity Pressure Visibility Wind Dir Wind Speed Gust Speed Precip Events Conditions
12:00 AM 55 °F - 48 °F 70% 30.12 in 6 mi East 6.9 mph - -  
12:00 AM 55.4 °F - 48.2 °F 77% 30.12 in - East 6.9 mph - N/A   Clear
1:00 AM 53.6 °F - 48.2 °F 82% 30.12 in - NE 6.9 mph - N/A   Clear
3:00 AM 51 °F - 49 °F 88% 30.12 in 6 mi ENE 4.6 mph - -  
3:00 AM 51.8 °F - 48.2 °F 88% 30.09 in - ENE 4.6 mph - N/A   Clear
6:00 AM 48 °F - 46 °F 88% 30.12 in 6 mi East 6.9 mph - -  
6:00 AM 48.2 °F - 46.4 °F 93% 30.09 in - East 6.9 mph - N/A   Clear
7:00 AM 46.4 °F 44.3 °F 44.6 °F 93% 30.09 in - ENE 4.6 mph - N/A   Clear
8:00 AM 48.2 °F - 46.4 °F 93% 30.09 in - East 9.2 mph - N/A   Clear
10:00 AM 48.2 °F - 42.8 °F 82% 30.15 in - East 8.1 mph - N/A   Clear
11:00 AM 60.8 °F - 50.0 °F 68% 30.12 in - East 8.1 mph - N/A   Clear
12:00 PM 64 °F - 51 °F 54% 30.09 in 6 mi NNE 6.9 mph - -  
12:00 PM 64.4 °F - 51.8 °F 64% 30.09 in - NNE 6.9 mph - N/A   Clear
2:00 PM 73.4 °F - 41.0 °F 31% 30.04 in - ENE 10.4 mph - N/A   Clear
3:00 PM 74 °F - 43 °F 22% 29.97 in 6 mi East 9.2 mph - -  
3:00 PM 75.2 °F - 42.8 °F 31% 30.04 in - ENE 9.2 mph - N/A   Clear
4:00 PM 75.2 °F - 42.8 °F 31% 30.04 in - ENE 9.2 mph - N/A   Clear
5:00 PM 75.2 °F - 42.8 °F 31% 30.01 in - East 9.2 mph - N/A   Clear
6:00 PM 74 °F - 44 °F 23% 29.96 in 6 mi East 9.2 mph - -  
6:00 PM 73.4 °F - 44.6 °F 36% 30.01 in - East 9.2 mph - N/A   Clear
7:00 PM 68.0 °F - 37.4 °F 33% 30.04 in - East 5.8 mph - N/A   Clear
7:30 PM 66.2 °F - 37.4 °F 35% 30.04 in - NE 4.6 mph - N/A   Clear
8:00 PM 66.2 °F - 37.4 °F 35% 30.04 in - NE 4.6 mph - N/A   Clear
8:30 PM 66.2 °F - 37.4 °F 35% 30.04 in - NE 4.6 mph - N/A   Clear
9:00 PM 61 °F - 54 °F 71% 30.03 in 6 mi NE 8.1 mph - -  
9:00 PM 60.8 °F - 53.6 °F 77% 30.06 in - NE 8.1 mph - N/A   Clear
10:00 PM 60.8 °F - 51.8 °F 72% 30.06 in - NE 6.9 mph - N/A   Clear
11:00 PM 59.0 °F - 50.0 °F 72% 30.06 in - ENE 8.1 mph - N/A   Clear
11:30 PM 57.2 °F - 51.8 °F 82% 30.04 in - ENE 9.2 mph - N/A   Clear
11:46 PM 56 °F - 51 °F 80% 30.04 in 6 mi ENE 6.9 mph - -